GFSGL_850_spd_060.txt.gz
Wind_Speed
25 27 33 32 27 29 32 28 27 24 25 22 22 22 26 22 18 18 15 14 14 13 13 12 12 13 15 14 14 14 13 14 12 9 10 11 15 17 18 15 14 14 16
26 28 27 25 27 29 29 27 24 25 24 21 23 26 23 21 19 17 15 14 14 13 7 10 11 13 12 13 11 12 13 14 15 13 15 17 16 17 16 14 15 15 16
22 24 25 25 26 26 26 25 26 27 24 24 25 24 22 20 16 14 12 13 13 13 10 9 11 14 14 13 13 13 12 13 17 15 19 19 18 17 18 15 16 17 19
25 25 25 24 24 26 28 27 25 26 27 25 24 21 16 16 15 13 11 11 12 12 12 11 12 13 14 14 14 15 15 14 15 16 21 22 20 18 17 18 19 17 19
30 24 25 25 27 27 29 25 24 28 26 24 23 17 14 14 16 13 9 12 11 12 13 12 14 15 14 13 13 18 20 18 17 19 24 22 21 20 20 20 22 22 22
24 26 28 29 30 30 28 25 31 28 25 24 21 18 17 17 16 13 12 14 14 14 13 13 13 15 14 14 14 18 19 19 20 21 24 25 24 22 22 21 24 26 24
27 29 30 32 31 24 22 23 28 27 25 24 20 16 16 16 15 13 15 13 12 11 10 11 13 14 13 14 13 18 17 15 15 14 20 25 28 27 24 23 26 31 29
30 34 33 30 27 26 30 29 26 24 21 20 20 19 17 17 16 15 13 13 13 12 11 9 11 11 11 14 13 17 15 15 14 15 15 21 22 24 23 24 27 30 27
35 33 31 31 30 31 29 24 23 24 23 21 21 18 17 16 14 13 13 13 12 12 11 9 11 11 12 16 14 15 17 17 15 12 10 14 18 21 22 21 24 30 27
35 33 32 29 29 26 27 27 24 22 21 21 20 16 15 13 12 12 12 11 10 10 11 11 12 10 14 15 14 17 19 16 16 19 19 19 19 20 22 23 23 28 28
32 27 26 24 26 27 30 26 23 21 20 20 17 15 12 9 10 11 11 10 8 7 9 11 12 12 15 15 15 14 12 14 16 21 22 21 20 20 17 21 22 26 27
28 32 30 26 30 30 29 25 24 21 20 20 18 15 11 12 12 12 12 9 7 5 9 11 10 13 17 16 16 12 12 16 19 23 24 23 22 21 19 20 19 20 22
33 33 32 30 26 27 29 25 23 20 22 21 18 14 12 14 13 12 11 11 9 6 10 10 9 16 17 17 17 15 13 14 20 23 23 23 22 21 20 19 18 19 18
32 32 33 28 26 26 24 22 21 23 21 20 17 16 14 13 13 12 11 10 9 10 14 12 13 17 16 19 20 16 11 9 17 21 21 19 19 19 17 18 20 20 18
33 33 29 27 28 26 22 21 20 18 17 18 16 14 15 16 13 9 6 7 9 10 16 16 16 17 18 20 21 16 13 13 13 16 18 19 18 19 19 19 19 20 21
35 33 30 28 26 24 22 22 18 16 16 14 12 10 10 9 12 9 7 8 10 14 19 19 20 19 21 21 19 16 15 14 14 16 16 16 21 20 21 17 18 18 19
33 33 29 25 23 22 20 20 21 19 19 18 16 15 9 9 7 10 7 9 12 18 19 20 21 21 20 17 16 15 14 13 14 16 16 15 19 20 20 19 17 19 19
32 30 25 25 23 20 18 17 16 19 22 22 17 18 14 12 9 9 8 11 14 14 17 20 22 20 20 18 17 15 14 13 13 14 15 15 16 16 18 19 20 22 19
33 28 25 24 21 18 16 16 16 19 21 23 23 20 18 14 11 9 11 10 12 14 14 16 20 19 25 19 16 12 11 11 12 9 14 13 14 15 18 20 24 23 20
29 30 27 24 22 19 16 17 19 20 22 23 24 22 19 17 16 17 16 14 13 11 11 12 14 15 20 19 16 12 11 10 11 10 10 9 10 11 13 17 21 25 24
26 27 26 21 21 19 17 17 18 20 22 23 21 17 14 14 18 20 18 15 12 10 8 9 11 15 17 19 18 15 13 13 13 13 12 11 11 11 9 14 16 17 17
24 25 25 22 21 19 16 15 17 18 19 22 19 17 14 14 20 19 16 13 10 9 9 8 9 12 11 10 13 14 14 13 13 13 13 10 10 11 11 13 15 15 16
25 25 26 27 22 21 16 16 17 16 22 22 22 21 21 20 18 15 13 12 12 9 10 9 9 11 12 12 11 11 11 10 10 9 9 9 7 7 8 10 11 13 16
23 23 26 24 24 25 20 23 20 18 22 26 27 26 23 19 14 14 12 10 11 12 10 10 8 11 10 9 9 10 9 9 9 9 9 9 9 10 12 15 18 19 20
29 28 23 21 26 28 23 22 25 23 29 31 29 26 21 17 15 11 12 12 12 13 12 11 8 10 9 8 7 8 9 9 10 9 10 13 15 17 20 20 13 10 9
29 30 26 21 30 31 28 27 27 27 34 31 27 24 21 19 17 15 14 13 13 13 12 10 11 12 11 9 9 10 9 7 6 7 9 8 8 8 9 8 7 7 8

GFSGL_850_spd_063.txt.gz
Wind_Speed
40 44 42 38 34 30 32 32 28 28 23 21 24 24 22 19 23 21 20 18 16 13 15 15 13 13 12 13 13 13 12 13 12 9 9 7 10 10 11 13 12 14 16
37 46 43 38 35 32 26 26 23 26 23 23 25 25 21 21 24 21 20 18 14 14 14 13 13 12 11 12 13 12 11 13 13 12 10 9 11 12 14 10 13 15 15
28 38 38 34 30 24 22 22 24 25 24 25 25 24 23 25 21 19 17 14 13 13 14 9 9 11 12 12 12 11 13 13 14 12 11 13 12 15 16 10 13 14 15
17 22 24 25 24 22 23 24 26 26 26 28 26 24 25 22 20 18 14 13 12 15 14 11 9 10 11 12 12 12 13 13 14 14 13 15 15 14 13 13 15 15 15
19 21 22 24 24 24 25 25 26 27 29 28 28 26 24 21 19 15 11 11 12 14 14 11 11 12 13 13 12 14 15 15 15 15 16 18 17 15 18 17 15 17 17
17 24 27 27 25 25 24 24 28 29 30 29 28 25 22 18 16 16 10 10 12 11 10 11 13 14 14 14 13 15 14 16 16 16 19 21 19 17 16 19 18 19 19
15 24 25 23 24 26 26 29 27 31 31 29 27 22 20 19 18 15 13 13 12 11 11 12 13 13 14 14 15 13 15 17 16 16 16 20 19 20 18 17 19 23 24
16 22 23 26 27 28 29 29 30 30 31 29 25 21 18 18 18 16 16 15 13 12 11 11 10 12 13 13 13 12 13 14 12 13 15 14 16 18 17 17 21 23 21
4 17 27 30 33 33 28 29 33 31 29 27 23 20 20 18 18 18 16 15 14 13 13 13 11 10 9 9 11 12 14 14 14 12 11 12 13 18 21 18 20 24 23
13 16 30 33 34 31 26 31 29 28 26 25 24 22 19 16 17 15 14 14 14 13 13 11 10 10 9 12 10 12 15 16 13 16 14 15 16 17 19 18 21 25 29
19 20 32 33 28 26 31 29 27 27 26 24 23 20 17 15 14 13 13 13 10 8 9 10 10 11 9 10 11 10 12 15 17 15 17 18 20 20 19 18 16 18 28
7 36 35 33 29 32 32 29 26 25 26 24 21 19 16 14 12 13 13 12 9 8 7 8 10 10 10 11 12 11 11 11 13 17 20 20 19 18 17 18 14 13 16
28 31 32 30 30 32 34 30 28 25 23 23 22 19 17 15 15 14 13 12 10 8 5 9 10 10 13 14 14 11 10 10 17 20 20 21 19 18 16 18 18 18 19
36 32 28 28 30 32 29 28 26 25 23 23 22 19 16 17 16 15 14 14 12 9 9 10 9 13 15 16 16 12 7 4 13 18 19 19 18 17 17 17 18 18 18
34 32 30 30 32 32 30 26 24 22 21 22 20 16 16 18 15 12 10 11 10 10 12 12 13 17 19 20 17 13 9 6 11 14 15 16 18 19 19 16 18 18 18
31 33 31 30 30 29 28 26 22 20 18 16 12 7 9 11 13 11 10 9 10 11 15 15 17 18 20 21 18 16 11 10 10 12 13 14 14 18 17 18 19 19 19
31 33 33 30 29 29 26 24 25 23 20 17 14 11 10 12 12 10 8 10 12 13 17 18 17 17 18 17 19 13 12 12 11 12 11 11 14 15 17 15 17 17 16
35 31 29 31 28 25 24 25 24 25 25 23 19 17 14 11 9 8 9 12 15 16 18 17 18 18 15 14 13 12 12 12 11 12 12 11 12 16 16 16 13 14 16
29 30 30 28 25 22 21 21 21 21 23 23 23 21 17 14 12 8 10 9 13 14 16 16 17 18 18 15 14 13 11 10 9 11 12 11 12 14 16 17 16 15 18
30 27 27 24 22 20 19 19 18 18 22 23 26 23 20 19 14 14 12 10 10 12 13 15 17 18 16 18 15 12 11 11 11 9 10 9 10 11 11 14 15 18 21
31 28 24 22 20 18 16 16 18 20 23 25 24 21 18 15 13 17 15 12 9 8 10 10 12 14 14 19 15 13 10 10 11 10 11 10 9 11 9 9 13 16 20
29 24 23 22 20 17 14 16 19 21 23 25 24 21 16 13 18 17 14 10 8 10 10 10 10 12 14 16 16 14 11 10 10 11 11 10 9 9 8 8 10 11 13
28 25 22 19 18 17 17 18 18 18 21 21 19 19 17 19 18 17 15 10 7 9 10 10 13 14 15 15 16 16 15 13 10 11 11 11 9 8 8 8 8 9 11
25 25 23 17 15 16 16 17 16 17 22 21 21 21 22 22 18 14 11 8 8 9 11 12 11 11 10 9 9 9 10 10 9 9 8 8 8 8 8 9 9 10 13
24 23 18 19 18 16 18 20 19 24 24 24 26 27 24 19 17 14 12 11 12 12 12 10 11 10 8 7 6 7 6 7 7 6 9 9 10 11 11 12 12 12 12
21 22 20 19 21 21 23 23 24 25 27 29 28 26 22 21 19 17 14 13 13 14 13 11 10 11 9 8 8 7 6 7 7 8 4 4 3 1 5 7 7 9 8

GFSGL_850_spd_069.txt.gz
Wind_Speed
23 27 33 36 39 39 38 44 44 42 32 31 35 29 27 28 25 25 23 20 22 23 22 21 20 17 16 14 14 14 14 12 10 10 10 9 8 8 9 9 9 12 11
28 29 30 35 39 42 39 43 44 36 30 30 30 29 28 28 26 26 23 22 23 23 22 21 20 18 16 14 14 14 14 13 10 9 10 9 8 7 9 9 10 10 13
29 33 31 34 39 42 39 40 33 27 28 30 30 29 32 28 28 26 21 23 22 24 22 21 19 18 16 14 14 14 14 13 13 9 8 9 7 8 9 10 10 11 14
31 35 29 31 38 41 39 33 29 30 30 31 31 31 30 30 28 25 23 21 23 23 20 18 17 16 14 14 14 14 14 12 13 10 9 10 10 11 11 10 11 13 14
33 35 24 28 35 38 39 33 31 31 30 31 31 31 30 28 27 23 25 23 24 23 20 18 18 14 13 14 14 15 13 13 14 12 12 13 15 15 16 14 13 14 15
34 33 26 24 29 36 37 36 34 33 32 31 31 30 29 28 25 25 24 23 23 20 19 20 18 16 14 13 14 15 14 14 16 16 17 14 18 19 18 17 16 17 17
32 33 26 19 23 32 34 36 35 34 33 32 31 30 28 27 27 28 24 23 19 19 18 19 18 16 14 13 14 14 14 15 15 13 17 16 18 21 20 18 17 16 18
28 30 22 16 19 27 35 37 36 33 33 32 31 28 29 29 30 25 24 20 18 17 17 16 15 14 14 14 14 14 14 15 15 14 12 11 15 13 16 16 19 18 18
33 25 17 11 19 26 31 31 30 31 31 30 29 29 32 32 28 26 26 20 19 17 16 16 14 13 12 12 13 14 13 14 15 14 13 11 13 12 16 14 19 17 19
27 22 15 7 19 24 27 29 27 28 30 31 33 33 31 31 28 28 25 20 20 19 18 15 13 13 11 11 11 11 11 13 13 14 14 15 16 13 14 11 13 17 17
22 19 13 8 17 20 21 23 29 32 34 35 36 33 30 28 28 26 23 21 18 18 16 14 13 12 11 11 11 9 10 12 15 14 12 13 17 16 18 16 14 11 13
17 15 14 14 19 24 24 28 33 34 37 40 36 32 29 28 26 25 22 18 16 14 13 12 12 12 12 12 14 10 11 13 14 14 14 14 16 18 19 17 16 16 15
15 13 14 18 20 23 29 34 35 36 42 36 34 31 28 27 25 22 19 16 15 14 11 9 12 12 13 13 12 11 13 14 14 15 11 10 15 17 18 17 15 14 14
16 12 19 19 23 27 32 33 35 39 37 35 33 31 29 26 24 21 19 20 17 12 10 8 12 12 13 13 14 14 11 11 12 13 12 14 16 17 16 17 15 13 12
14 12 19 25 32 35 36 34 38 34 33 33 30 28 26 24 22 19 20 21 17 13 11 11 15 16 18 17 17 13 9 8 12 14 15 16 16 15 14 13 15 12 10
19 14 28 33 35 34 35 35 30 27 24 23 23 21 20 17 17 18 18 17 15 13 12 13 15 16 19 21 18 14 10 8 13 14 15 15 15 14 15 14 14 12 11
21 21 25 30 31 33 32 34 34 29 24 20 19 16 14 18 19 18 17 16 14 14 14 14 15 18 22 21 18 14 12 9 12 12 13 13 13 14 15 14 13 14 13
23 29 28 19 25 28 31 31 29 27 27 27 21 18 17 20 19 17 15 15 16 14 12 13 16 19 21 20 18 15 12 12 10 11 12 13 12 15 16 15 14 13 12
21 25 32 28 23 27 28 28 27 28 28 27 24 23 22 19 16 14 12 13 14 14 14 13 17 18 21 18 16 14 10 11 11 11 11 11 10 12 12 13 14 12 11
28 29 29 28 31 29 27 28 28 29 29 27 26 26 24 18 14 15 13 12 13 13 13 13 16 15 17 15 13 12 11 10 9 10 10 10 9 10 12 11 11 10 10
32 32 32 31 28 27 27 27 28 30 29 28 25 23 20 16 13 16 13 12 12 12 12 16 17 17 17 15 14 12 11 11 9 10 11 11 10 9 9 9 10 12 12
29 28 26 24 27 26 25 25 25 27 27 28 26 22 19 14 18 15 14 13 12 13 13 16 14 19 17 15 13 11 10 11 10 9 9 9 10 9 9 9 9 10 13
26 25 26 26 24 23 24 23 24 25 26 30 28 25 21 19 19 17 13 12 11 13 15 15 15 14 18 15 15 13 11 10 9 9 9 9 9 8 8 8 7 9 9
25 26 25 24 23 22 23 24 24 25 26 33 27 26 22 24 21 16 11 14 13 13 13 14 14 14 14 18 17 15 12 9 8 7 8 9 10 10 7 6 7 8 9
25 26 26 24 23 24 24 26 28 30 33 32 30 24 25 23 19 16 10 16 13 14 15 15 15 14 15 16 15 15 14 13 11 10 9 9 10 10 10 12 8 8 9
24 23 25 26 24 25 27 30 32 33 31 28 25 25 26 23 19 15 15 13 15 14 14 14 13 12 12 12 11 11 12 13 9 7 7 8 8 6 6 6 9 10 9

GFSGL_850_spd_072.txt.gz
Wind_Speed
24 24 24 25 26 26 31 35 39 38 37 39 37 30 29 30 32 29 25 22 22 20 19 22 23 19 16 14 14 15 14 14 13 8 8 10 9 10 10 11 11 11 13
23 23 26 25 27 29 30 35 38 36 36 34 30 29 30 32 33 28 27 21 21 23 22 23 23 19 19 16 15 15 14 14 12 12 9 9 9 9 8 9 9 10 11
27 27 26 26 31 33 31 34 37 33 32 31 28 29 31 32 30 27 24 21 22 23 23 24 22 19 17 15 16 15 14 13 12 10 9 7 8 9 11 11 9 9 11
28 29 30 28 29 35 32 33 33 32 30 30 32 31 30 28 27 24 21 23 23 23 23 21 19 18 16 16 16 15 14 14 12 12 10 9 8 10 10 9 11 11 12
29 30 31 29 31 31 31 31 31 30 32 33 33 30 28 27 25 23 24 24 24 24 24 23 18 16 18 17 15 15 16 14 12 13 12 10 11 12 13 11 11 11 13
31 32 30 28 29 30 29 30 30 31 33 33 33 31 29 25 27 29 26 24 23 25 26 24 16 19 19 18 18 18 16 14 15 14 15 13 13 14 15 12 10 14 11
32 30 29 28 27 29 23 30 32 35 36 37 34 30 28 26 29 27 25 24 25 24 25 21 17 17 20 18 17 18 18 18 18 15 14 14 16 15 17 17 13 13 10
31 30 28 26 27 27 21 32 34 36 38 37 35 31 29 27 26 26 27 25 24 25 19 18 19 18 20 16 14 15 15 15 18 17 17 16 14 16 16 19 16 16 14
30 28 26 22 30 29 23 34 36 35 35 32 30 30 29 28 28 29 31 24 23 18 17 17 17 17 17 17 14 13 12 17 15 14 13 14 13 12 17 17 19 20 13
27 27 24 27 32 25 29 35 37 35 36 32 29 28 29 29 33 35 30 24 20 18 17 17 18 14 15 14 14 15 14 16 13 14 13 14 14 14 13 12 14 21 18
26 25 21 33 33 23 35 33 35 35 34 33 32 32 29 31 38 34 29 21 19 19 17 14 15 17 14 15 15 13 12 12 12 12 14 15 17 15 14 14 11 12 15
27 26 34 43 24 29 33 33 35 36 36 36 36 33 34 38 35 33 31 21 21 17 15 14 15 16 15 15 15 12 11 12 14 15 13 12 18 18 17 17 14 13 15
26 26 27 16 14 24 26 29 30 33 36 35 37 39 36 34 33 33 30 24 18 13 12 13 15 16 16 15 14 14 13 14 14 14 14 13 11 12 16 17 17 17 15
25 21 13 2 5 13 24 26 30 31 36 41 40 40 36 33 35 32 28 23 19 19 15 13 15 16 15 14 15 15 14 15 16 14 14 12 9 13 16 16 16 14 13
19 17 9 10 8 18 23 27 31 35 39 44 41 34 31 29 30 30 27 23 18 18 15 13 17 17 16 16 17 16 12 11 10 10 12 13 15 16 16 14 14 11 10
15 12 12 13 20 26 30 31 31 34 37 32 29 27 25 25 28 26 23 23 22 17 15 15 18 18 19 19 19 15 10 11 11 12 15 16 18 18 16 15 16 11 11
11 7 18 24 30 35 37 38 38 33 32 31 30 28 24 23 24 23 21 21 19 17 12 16 18 20 22 21 18 13 9 9 12 12 13 14 14 15 14 12 11 10 9
13 10 30 34 32 31 28 35 31 29 32 30 25 22 20 22 23 22 23 22 20 17 14 16 17 19 25 21 18 11 10 9 10 11 12 12 13 13 14 13 11 12 13
17 18 31 32 31 30 27 26 26 26 25 29 27 25 24 23 22 20 19 16 19 17 15 15 17 20 23 22 16 10 11 10 10 11 12 12 11 11 14 13 10 11 11
20 23 24 32 31 27 25 28 27 24 26 24 27 30 28 26 24 21 17 17 18 17 15 14 18 20 20 17 16 13 11 12 11 11 10 10 10 11 11 11 12 12 12
29 25 27 27 26 28 29 28 24 25 24 22 28 28 23 16 16 17 16 15 15 16 16 17 19 18 20 15 14 15 13 10 9 9 9 9 10 9 11 11 10 11 11
31 32 28 28 25 27 24 24 25 24 23 27 31 28 22 15 16 15 15 15 14 16 17 19 18 18 17 13 14 12 11 10 10 9 10 10 8 6 6 8 9 10 11
29 28 29 26 24 25 24 23 24 23 24 32 30 25 17 19 16 19 19 18 16 17 20 18 20 20 18 13 12 11 10 9 9 9 9 9 8 8 9 9 9 10 10
27 24 25 24 24 23 25 27 27 26 29 31 27 24 20 19 20 18 16 17 18 18 19 19 18 21 19 16 12 13 11 10 10 9 9 9 9 9 9 10 8 10 10
25 25 24 24 26 27 27 27 27 30 35 33 30 25 21 22 19 15 16 15 16 18 18 18 17 16 16 15 15 15 13 10 9 8 7 8 9 10 9 10 11 9 9
23 21 25 26 25 26 28 30 32 34 36 32 30 24 25 22 19 16 18 16 17 18 17 16 15 13 14 14 13 13 13 12 11 9 6 5 5 6 9 9 9 9 8

GFSGL_850_spd_075.txt.gz
Wind_Speed
18 17 18 18 19 20 22 25 26 28 33 38 41 34 36 32 33 38 38 33 31 29 23 22 26 23 20 20 19 16 15 15 14 9 5 11 16 16 14 14 15 11 14
20 21 21 22 22 23 24 24 28 30 32 33 33 35 37 35 37 38 35 29 29 24 23 24 25 21 25 22 19 17 16 15 16 14 10 10 12 11 11 12 13 10 12
19 22 25 28 27 27 28 27 27 27 29 30 30 31 32 33 34 35 35 31 27 24 23 28 24 24 24 23 20 16 17 16 14 18 11 11 9 10 13 11 12 11 11
22 23 26 28 32 32 30 29 30 29 28 31 32 32 34 33 34 31 29 29 28 23 28 26 23 24 24 22 18 18 15 15 17 15 13 12 10 12 12 12 11 10 10
29 29 29 30 31 34 35 33 30 32 28 32 33 35 36 35 35 34 33 30 30 27 27 24 24 22 20 16 15 17 17 17 16 17 16 14 12 11 15 12 9 12 11
32 34 35 32 32 34 36 36 32 31 29 32 35 37 38 38 38 38 34 32 31 27 27 23 21 22 22 23 21 19 18 21 19 17 15 19 15 14 15 14 11 12 10
37 39 36 33 34 34 34 35 36 32 31 36 37 38 39 41 40 39 35 34 30 28 26 24 22 18 24 21 21 22 21 19 19 18 16 16 16 16 14 16 13 11 8
40 40 37 36 37 36 35 36 36 33 33 37 39 40 40 42 38 38 40 29 28 24 24 26 25 19 18 16 15 19 19 17 20 19 17 19 18 16 16 16 16 15 13
43 42 44 37 35 37 35 34 34 32 36 40 40 40 40 41 40 41 40 26 24 23 22 20 19 17 17 20 16 15 14 16 17 17 19 19 18 18 16 18 17 16 11
42 37 40 37 36 35 32 32 32 36 37 40 41 40 39 43 42 38 36 23 25 22 20 18 20 18 19 17 18 15 16 15 17 18 16 13 14 16 16 16 15 16 12
40 42 40 37 34 33 31 34 33 35 37 41 41 38 38 40 39 38 33 26 24 23 19 16 19 23 18 15 18 16 15 15 15 13 14 13 13 13 14 14 12 13 19
34 36 35 34 33 32 36 38 37 31 42 40 38 36 36 35 39 39 34 26 23 21 18 17 17 20 18 15 17 17 15 15 13 13 14 13 14 14 15 14 11 11 10
34 36 40 40 39 46 38 37 36 38 39 37 40 42 36 44 44 42 33 26 23 21 20 20 18 16 18 17 18 15 13 12 12 14 14 12 12 15 15 16 10 11 7
37 38 39 40 31 32 44 38 37 39 44 40 43 39 38 46 46 41 36 27 29 22 17 18 17 17 17 18 17 16 14 14 12 12 13 13 13 12 11 14 17 15 14
34 37 35 52 63 50 46 38 44 43 44 36 34 39 47 48 47 40 36 26 21 18 21 17 17 18 18 17 16 16 14 13 15 14 11 13 12 10 9 14 15 12 12
33 30 33 25 28 50 46 41 38 35 32 32 35 38 34 39 37 33 31 25 23 19 15 15 18 20 19 17 17 15 13 10 9 11 12 12 14 12 9 9 11 12 10
24 25 20 8 23 33 37 39 37 33 35 32 36 30 28 28 34 30 28 24 22 18 14 15 18 20 17 17 17 14 12 11 11 12 15 14 12 14 14 11 13 13 9
20 15 4 8 18 29 33 36 39 42 38 32 27 25 27 23 28 27 25 22 24 19 13 14 17 19 20 19 16 14 14 12 12 12 12 12 14 15 15 12 9 9 9
13 9 11 23 26 34 38 33 34 33 35 36 29 25 24 24 25 23 23 19 19 16 14 15 17 19 22 19 14 14 13 13 12 12 13 12 12 13 12 12 10 10 10
10 8 27 29 27 34 32 31 32 28 29 30 32 30 29 28 27 25 24 18 17 14 15 16 17 18 22 15 15 12 13 11 11 11 11 10 9 9 11 13 11 8 10
10 19 26 28 27 33 32 29 27 29 26 23 31 28 27 26 27 23 15 18 15 15 15 14 17 19 21 16 16 12 10 9 10 10 10 9 8 8 9 9 6 13 12
15 19 27 27 29 29 27 26 27 28 25 27 26 28 22 21 16 15 15 13 14 17 16 16 15 18 18 15 13 13 11 9 8 7 9 8 8 8 7 9 10 8 7
22 19 21 24 25 26 30 27 28 31 26 27 25 22 17 18 21 21 21 20 18 19 20 20 18 17 14 15 12 11 9 8 8 8 9 9 7 5 7 7 8 8 8
27 24 25 23 25 29 26 27 29 27 30 28 25 25 24 22 19 20 19 17 17 18 20 19 18 18 16 13 14 14 13 12 9 8 7 7 8 8 8 7 7 9 9
26 24 26 26 26 28 31 32 29 27 30 32 29 24 20 18 19 19 18 18 17 19 20 18 20 19 18 15 11 9 10 8 6 6 6 6 7 7 7 6 7 8 9
26 27 25 29 29 33 35 35 31 35 36 32 26 21 23 22 19 18 17 18 18 18 18 17 14 14 15 14 10 11 10 8 6 6 7 6 6 6 7 7 5 4 3